Afton Municipal Airport, WY

6:28 PM MST on December 06, 2019 (GMT -0700)
Afton Municipal

Weather History for KAFO - November, 2019

Change the Weather History Date:

Saturday, November 16, 2019

  Actual Average Record
Temperature  
Mean Temperature 32 °F -  
Max Temperature 42 °F 41 °F 44 °F (2018)
Min Temperature 21 °F 13 °F -5 °F (2014)
Degree Days  
Heating Degree Days 34    
Moisture  
Dew Point 26 °F    
Average Humidity 71    
Maximum Humidity 93    
Minimum Humidity 46    
Precipitation  
Precipitation 0.00 in - - ()
Sea Level Pressure  
Sea Level Pressure 30.24 in    
Wind  
Wind Speed 5 mph ()    
Max Wind Speed 17 mph    
Max Gust Speed 23 mph    
Visibility 10.0 miles    
Events      
Averages and records for this station are not official NWS values.
T = Trace of Precipitation, MM = Missing Value Source: Averaged Metar Reports

Daily Weather History Graph

Daily Weather History Graph

Search for Another Location

Airport or City:

Astronomy

Nov. 16, 2019 Rise Set
Actual Time 7:16 AM MST 5:00 PM MST
Civil Twilight 6:45 AM MST 5:30 PM MST
Nautical Twilight 6:11 AM MST 6:04 PM MST
Astronomical Twilight 5:38 AM MST 6:38 PM MST
Moon 8:34 PM MST (11/16) 11:16 AM MST (11/16)
Length of Visible Light 10h 44m
Length of Day
9h 43m
Waning Gibbous, 82% of the Moon is Illuminated
Nov 16
Waning Gibbous
Nov 19
Last Quarter
Nov 26
New
Dec 3
First Quarter
Dec 11
Full

Hourly Weather History & Observations

Time (MST) Temp. Windchill Dew Point Humidity Pressure Visibility Wind Dir Wind Speed Gust Speed Precip Events Conditions
12:15 AM 35.6 °F 30.7 °F 28.4 °F 75% 30.17 in 10.0 mi SSE 5.8 mph - N/A   Mostly Cloudy
12:35 AM 37.4 °F 31.4 °F 28.4 °F 70% 30.16 in 10.0 mi SE 8.1 mph - N/A   Overcast
12:55 AM 35.6 °F 30.7 °F 28.4 °F 75% 30.17 in 10.0 mi West 5.8 mph - N/A   Mostly Cloudy
1:15 AM 35.6 °F - 28.4 °F 75% 30.17 in 10.0 mi Calm Calm - N/A   Overcast
1:35 AM 35.6 °F - 28.4 °F 75% 30.16 in 10.0 mi Calm Calm - N/A   Overcast
1:55 AM 35.6 °F - 28.4 °F 75% 30.16 in 10.0 mi North - - N/A   Overcast
2:15 AM 35.6 °F - 28.4 °F 75% 30.16 in 10.0 mi North - - N/A   Overcast
2:35 AM 35.6 °F - 30.2 °F 81% 30.16 in 10.0 mi North - - N/A   Overcast
2:55 AM 37.4 °F - 28.4 °F 70% 30.16 in 10.0 mi North - - N/A   Overcast
3:15 AM 33.8 °F - 30.2 °F 87% 30.16 in 10.0 mi North - - N/A   Overcast
3:35 AM 33.8 °F - 30.2 °F 87% 30.16 in 10.0 mi North - - N/A   Overcast
3:55 AM 37.4 °F - 28.4 °F 70% 30.16 in 10.0 mi North - - N/A   Overcast
4:15 AM 35.6 °F - 28.4 °F 75% 30.16 in 10.0 mi North - - N/A   Overcast
4:35 AM 32.0 °F 28.7 °F 30.2 °F 93% 30.16 in 10.0 mi SSW 3.5 mph - N/A   Overcast
4:55 AM 32.0 °F 27.5 °F 28.4 °F 87% 30.16 in 10.0 mi South 4.6 mph - N/A   Overcast
5:15 AM 35.6 °F - 28.4 °F 75% 30.17 in 10.0 mi Calm Calm - N/A   Overcast
5:35 AM 35.6 °F - 28.4 °F 75% 30.17 in 10.0 mi Calm Calm - N/A   Overcast
5:55 AM 39.2 °F - 28.4 °F 65% 30.17 in 10.0 mi Calm Calm - N/A   Overcast
6:15 AM 37.4 °F - 30.2 °F 75% 30.18 in 10.0 mi Calm Calm - N/A   Overcast
6:35 AM 37.4 °F - 30.2 °F 75% 30.17 in 10.0 mi Calm Calm - N/A   Overcast
6:55 AM 39.2 °F 37.0 °F 30.2 °F 70% 30.18 in 10.0 mi North 3.5 mph - N/A   Overcast
7:15 AM 39.2 °F 35.9 °F 30.2 °F 70% 30.19 in 10.0 mi North 4.6 mph - N/A   Overcast
7:35 AM 39.2 °F 33.0 °F 30.2 °F 70% 30.20 in 10.0 mi North 9.2 mph - N/A   Overcast
7:55 AM 37.4 °F 32.1 °F 30.2 °F 75% 30.21 in 10.0 mi WNW 6.9 mph - N/A   Overcast
8:15 AM 39.2 °F 32.5 °F 30.2 °F 70% 30.21 in 10.0 mi WNW 10.4 mph - N/A   Overcast
8:35 AM 41.0 °F 35.8 °F 28.4 °F 61% 30.22 in 10.0 mi WNW 8.1 mph - N/A   Overcast
8:55 AM 39.2 °F 30.8 °F 28.4 °F 65% 30.23 in 10.0 mi WNW 15.0 mph 23.0 mph N/A   Overcast
9:15 AM 39.2 °F 32.0 °F 28.4 °F 65% 30.22 in 10.0 mi West 11.5 mph 19.6 mph N/A   Overcast
9:35 AM 41.0 °F 33.5 °F 28.4 °F 61% 30.23 in 10.0 mi West 13.8 mph 19.6 mph N/A   Overcast
10:15 AM 41.0 °F 32.5 °F 28.4 °F 61% 30.23 in 10.0 mi West 17.3 mph 23.0 mph N/A   Overcast
10:35 AM 39.2 °F 33.0 °F 30.2 °F 70% 30.23 in 10.0 mi NW 9.2 mph - N/A   Overcast
10:55 AM 37.4 °F 30.8 °F 30.2 °F 75% 30.24 in 10.0 mi NW 9.2 mph - N/A   Overcast
11:15 AM 41.0 °F 37.1 °F 30.2 °F 65% 30.23 in 10.0 mi NW 5.8 mph - N/A   Overcast
11:35 AM 41.0 °F 35.8 °F 30.2 °F 65% 30.24 in 10.0 mi NNW 8.1 mph - N/A   Overcast
11:55 AM 41.0 °F 37.1 °F 30.2 °F 65% 30.23 in 10.0 mi North 5.8 mph - N/A   Overcast
12:15 PM 41.0 °F 37.1 °F 30.2 °F 65% 30.23 in 10.0 mi North 5.8 mph - N/A   Overcast
12:55 PM 42.8 °F 37.5 °F 28.4 °F 57% 30.23 in 10.0 mi NW 9.2 mph - N/A   Overcast
1:15 PM 41.0 °F 34.7 °F 26.6 °F 57% 30.23 in 10.0 mi North 10.4 mph 17.3 mph N/A   Overcast
1:35 PM 41.0 °F 33.1 °F 26.6 °F 57% 30.23 in 10.0 mi North 15.0 mph - N/A   Overcast
1:55 PM 41.0 °F 33.1 °F 26.6 °F 57% 30.23 in 10.0 mi North 15.0 mph 18.4 mph N/A   Overcast
2:15 PM 41.0 °F 34.3 °F 28.4 °F 61% 30.24 in 10.0 mi North 11.5 mph - N/A   Overcast
2:35 PM 42.8 °F 37.0 °F 23.0 °F 46% 30.25 in 10.0 mi NW 10.4 mph - N/A   Overcast
2:55 PM 42.8 °F 37.0 °F 23.0 °F 46% 30.25 in 10.0 mi NW 10.4 mph - N/A   Mostly Cloudy
3:15 PM 39.2 °F 34.2 °F 23.0 °F 52% 30.25 in 10.0 mi WNW 6.9 mph - N/A   Scattered Clouds
3:35 PM 41.0 °F 36.4 °F 23.0 °F 49% 30.25 in 10.0 mi WNW 6.9 mph - N/A   Clear
3:55 PM 37.4 °F 32.8 °F 23.0 °F 56% 30.26 in 10.0 mi WNW 5.8 mph - N/A   Scattered Clouds
4:15 PM 39.2 °F 34.2 °F 21.2 °F 49% 30.26 in 10.0 mi WNW 6.9 mph - N/A   Scattered Clouds
4:35 PM 35.6 °F 31.7 °F 21.2 °F 56% 30.26 in 10.0 mi WNW 4.6 mph - N/A   Scattered Clouds
4:55 PM 33.8 °F 29.6 °F 21.2 °F 60% 30.28 in 10.0 mi NW 4.6 mph - N/A   Scattered Clouds
5:15 PM 32.0 °F 27.5 °F 21.2 °F 64% 30.28 in 10.0 mi North 4.6 mph - N/A   Clear
5:35 PM 32.0 °F - 21.2 °F 64% 30.29 in 10.0 mi Calm Calm - N/A   Clear
5:55 PM 32.0 °F - 21.2 °F 64% 30.29 in 10.0 mi Calm Calm - N/A   Clear
6:35 PM 30.2 °F 25.4 °F 21.2 °F 69% 30.31 in 10.0 mi East 4.6 mph - N/A   Clear
7:15 PM 26.6 °F 21.2 °F 21.2 °F 80% 30.32 in 10.0 mi SSE 4.6 mph - N/A   Clear
7:35 PM 26.6 °F 21.2 °F 21.2 °F 80% 30.32 in 10.0 mi South 4.6 mph - N/A   Clear
7:55 PM 26.6 °F 18.2 °F 21.2 °F 80% 30.32 in 10.0 mi South 8.1 mph - N/A   Clear
8:15 PM 26.6 °F 22.6 °F 21.2 °F 80% 30.32 in 10.0 mi SE 3.5 mph - N/A   Clear
8:35 PM 24.8 °F 19.1 °F 21.2 °F 86% 30.32 in 10.0 mi SSE 4.6 mph - N/A   Clear
8:55 PM 24.8 °F 19.1 °F 21.2 °F 86% 30.33 in 10.0 mi SSW 4.6 mph - N/A   Clear
9:15 PM 26.6 °F 21.2 °F 23.0 °F 86% 30.33 in 10.0 mi SSE 4.6 mph - N/A   Clear
9:35 PM 24.8 °F - 21.2 °F 86% 30.33 in 10.0 mi Calm Calm - N/A   Clear
9:55 PM 23.0 °F - 19.4 °F 86% 30.33 in 10.0 mi Calm Calm - N/A   Clear
10:15 PM 23.0 °F - 19.4 °F 86% 30.32 in 10.0 mi Calm Calm - N/A   Clear
10:35 PM 21.2 °F - 19.4 °F 93% 30.32 in 10.0 mi Calm Calm - N/A   Clear
10:55 PM 23.0 °F 18.4 °F 19.4 °F 86% 30.34 in 10.0 mi ESE 3.5 mph - N/A   Clear
11:15 PM 26.6 °F - 21.2 °F 80% 30.34 in 10.0 mi Calm Calm - N/A   Clear
11:35 PM 24.8 °F - 21.2 °F 86% 30.34 in 10.0 mi Calm Calm - N/A   Clear
11:55 PM 23.0 °F 17.0 °F 21.2 °F 93% 30.34 in 10.0 mi South 4.6 mph - N/A   Clear